{"data":{"norad_id":49195,"epoch":"2026-05-25T02:05:54.687264Z","epoch_age_seconds":67664,"freshness":"FRESH","line1":"1 49195U 21083K   26145.08743851  .00000018  00000+0  11787-4 0  9992","line2":"2 49195  87.9168 340.0526 0002118  88.7519 271.3856 13.18685101226959","mean_motion":13.18685101,"eccentricity":0.0002118,"inclination_deg":87.9168,"raan_deg":340.0526,"arg_perigee_deg":88.7519,"mean_anomaly_deg":271.3856,"bstar":1.1787e-5,"rev_number":22695,"period_min":109.19968678709,"perigee_km":1188.1436886768,"apogee_km":1191.3494441556,"semimajor_km":7567.8835664162,"source":"CELESTRAK","updated_at":"2026-05-25T13:38:22.490683Z"}}